When you browse on this site, cookies collect data to enhance your experience and personalize the content and advertising you see.
Visit our Privacy Policy to learn more. By continuing to use the site, you agree to this use of cookies and data.
  • In Romania
  • List of Countries
  • For 7 days
  • Water Temperature
  • Satellite Maps
  • Weather Map
  • Weather Widgets
  • user-avatar
    Login

    Hourly Weather Maskat

    Today, 20 May, Monday

    Time Temperature Precipitation Wind Pressure Humidity
    00:00 +35°C° 0 mm 2 mps 751 mmHg 48%
    01:00 +35°C° 0 mm 3 mps 751 mmHg 49%
    02:00 +35°C° 0 mm 3 mps 750 mmHg 48%
    03:00 +35°C° 0 mm 3 mps 750 mmHg 48%
    04:00 +34°C° 0 mm 3 mps 750 mmHg 48%
    05:00 +35°C° 0 mm 3 mps 751 mmHg 47%
    06:00 +35°C° 0 mm 3 mps 751 mmHg 46%
    07:00 +35°C° 0 mm 3 mps 751 mmHg 45%
    08:00 +36°C° 0 mm 2 mps 751 mmHg 40%
    09:00 +38°C° 0 mm 2 mps 751 mmHg 36%
    10:00 +39°C° 0 mm 2 mps 751 mmHg 32%
    11:00 +40°C° 0 mm 3 mps 751 mmHg 31%
    12:00 +41°C° 0 mm 4 mps 751 mmHg 30%
    13:00 +42°C° 0 mm 6 mps 750 mmHg 29%
    14:00 +41°C° 0.5 mm 5 mps 750 mmHg 36%
    15:00 +39°C° 0.5 mm 5 mps 749 mmHg 42%
    16:00 +36°C° 0.5 mm 4 mps 749 mmHg 48%
    17:00 +36°C° 3 mm 5 mps 749 mmHg 49%
    18:00 +36°C° 3 mm 7 mps 749 mmHg 50%
    19:00 +35°C° 3 mm 8 mps 750 mmHg 51%
    20:00 +35°C° 0.2 mm 7 mps 750 mmHg 50%
    21:00 +35°C° 0.2 mm 6 mps 750 mmHg 50%
    22:00 +35°C° 0.2 mm 5 mps 750 mmHg 50%
    23:00 +35°C° 0.3 mm 4 mps 750 mmHg 52%

    Tomorrow, 21 May, Tuesday

    Time Temperature Precipitation Wind Pressure Humidity
    00:00 +35°C° 0.3 mm 4 mps 750 mmHg 53%
    01:00 +34°C° 0.3 mm 3 mps 750 mmHg 54%
    02:00 +35°C° 0 mm 3 mps 750 mmHg 54%
    03:00 +35°C° 0 mm 3 mps 750 mmHg 53%
    04:00 +35°C° 0 mm 3 mps 750 mmHg 53%
    05:00 +35°C° 0.2 mm 3 mps 750 mmHg 53%
    06:00 +34°C° 0.2 mm 4 mps 750 mmHg 53%
    07:00 +34°C° 0.2 mm 4 mps 751 mmHg 53%
    08:00 +36°C° 0 mm 3 mps 751 mmHg 46%
    09:00 +37°C° 0 mm 2 mps 751 mmHg 39%
    10:00 +39°C° 0 mm 1 mps 751 mmHg 32%
    11:00 +40°C° 0 mm 2 mps 751 mmHg 29%
    12:00 +41°C° 0 mm 2 mps 750 mmHg 26%
    13:00 +43°C° 0 mm 3 mps 750 mmHg 22%
    14:00 +42°C° 0 mm 3 mps 750 mmHg 26%
    15:00 +41°C° 0 mm 4 mps 749 mmHg 29%
    16:00 +41°C° 0 mm 4 mps 749 mmHg 32%
    17:00 +39°C° 0 mm 3 mps 749 mmHg 35%
    18:00 +38°C° 0 mm 2 mps 749 mmHg 39%
    19:00 +37°C° 0 mm 2 mps 749 mmHg 42%
    20:00 +36°C° 0 mm 1 mps 750 mmHg 42%
    21:00 +36°C° 0 mm 1 mps 750 mmHg 43%
    22:00 +33°C° 0 mm 0 mps 751 mmHg 44%
    23:00 +35°C° 0 mm 1 mps 750 mmHg 43%

    Day after tomorrow, 22 May, Wednesday

    Time Temperature Precipitation Wind Pressure Humidity
    00:00 +35°C° 0 mm 1 mps 750 mmHg 42%
    01:00 +36°C° 0 mm 2 mps 750 mmHg 42%
    02:00 +36°C° 0 mm 2 mps 749 mmHg 41%
    03:00 +35°C° 0 mm 2 mps 749 mmHg 41%
    04:00 +35°C° 0 mm 2 mps 749 mmHg 41%
    05:00 +36°C° 0 mm 2 mps 749 mmHg 38%
    06:00 +36°C° 0 mm 2 mps 750 mmHg 34%
    07:00 +37°C° 0 mm 2 mps 750 mmHg 31%
    08:00 +39°C° 0 mm 2 mps 750 mmHg 26%
    09:00 +40°C° 0 mm 2 mps 751 mmHg 21%
    10:00 +42°C° 0 mm 3 mps 751 mmHg 16%
    11:00 +43°C° 0 mm 4 mps 750 mmHg 16%
    12:00 +43°C° 0 mm 4 mps 750 mmHg 15%
    13:00 +45°C° 0 mm 5 mps 750 mmHg 15%
    14:00 +43°C° 0 mm 4 mps 749 mmHg 17%
    15:00 +42°C° 0 mm 3 mps 749 mmHg 18%
    16:00 +40°C° 0 mm 2 mps 748 mmHg 20%
    17:00 +40°C° 0 mm 2 mps 748 mmHg 19%
    18:00 +39°C° 0 mm 1 mps 749 mmHg 19%
    19:00 +39°C° 0 mm 1 mps 749 mmHg 19%
    20:00 +39°C° 0 mm 2 mps 749 mmHg 19%
    21:00 +39°C° 0 mm 2 mps 750 mmHg 20%
    22:00 +38°C° 0 mm 3 mps 750 mmHg 21%
    23:00 +38°C° 0 mm 3 mps 750 mmHg 21%

    23 May, Thursday

    Time Temperature Precipitation Wind Pressure Humidity
    00:00 +37°C° 0 mm 3 mps 749 mmHg 21%
    01:00 +37°C° 0 mm 4 mps 749 mmHg 22%
    02:00 +37°C° 0 mm 4 mps 748 mmHg 19%
    03:00 +37°C° 0 mm 4 mps 748 mmHg 17%
    04:00 +37°C° 0 mm 4 mps 748 mmHg 14%
    05:00 +37°C° 0 mm 4 mps 748 mmHg 14%
    06:00 +38°C° 0 mm 4 mps 749 mmHg 13%
    07:00 +40°C° 0 mm 5 mps 749 mmHg 12%
    08:00 +41°C° 0 mm 5 mps 749 mmHg 12%
    09:00 +42°C° 0 mm 6 mps 750 mmHg 13%
    10:00 +45°C° 0 mm 6 mps 750 mmHg 13%
    11:00 +45°C° 0 mm 6 mps 749 mmHg 12%
    12:00 +46°C° 0 mm 6 mps 749 mmHg 12%
    13:00 +46°C° 0 mm 6 mps 748 mmHg 11%
    14:00 +46°C° 0 mm 6 mps 748 mmHg 12%
    15:00 +45°C° 0 mm 5 mps 748 mmHg 13%
    16:00 +43°C° 0 mm 5 mps 747 mmHg 14%
    17:00 +42°C° 0 mm 4 mps 748 mmHg 15%
    18:00 +40°C° 0 mm 3 mps 748 mmHg 16%
    19:00 +39°C° 0 mm 2 mps 748 mmHg 18%
    20:00 +38°C° 0 mm 2 mps 749 mmHg 19%
    21:00 +38°C° 0 mm 3 mps 749 mmHg 20%
    22:00 +38°C° 0 mm 3 mps 750 mmHg 22%
    23:00 +37°C° 0 mm 3 mps 749 mmHg 24%

    24 May, Friday

    Time Temperature Precipitation Wind Pressure Humidity
    00:00 +37°C° 0 mm 3 mps 749 mmHg 25%
    01:00 +36°C° 0 mm 3 mps 749 mmHg 27%
    02:00 +36°C° 0 mm 3 mps 749 mmHg 26%
    03:00 +36°C° 0 mm 3 mps 748 mmHg 24%
    04:00 +36°C° 0 mm 3 mps 748 mmHg 23%
    05:00 +37°C° 0 mm 3 mps 749 mmHg 20%
    06:00 +37°C° 0 mm 3 mps 749 mmHg 17%
    07:00 +38°C° 0 mm 3 mps 750 mmHg 15%
    08:00 +40°C° 0 mm 4 mps 750 mmHg 13%
    09:00 +42°C° 0 mm 5 mps 750 mmHg 12%
    10:00 +43°C° 0 mm 5 mps 751 mmHg 10%
    11:00 +45°C° 0 mm 6 mps 750 mmHg 11%
    12:00 +45°C° 0 mm 6 mps 750 mmHg 11%
    13:00 +45°C° 0 mm 6 mps 749 mmHg 11%
    14:00 +45°C° 0 mm 5 mps 749 mmHg 13%
    15:00 +43°C° 0 mm 4 mps 749 mmHg 14%
    16:00 +43°C° 0 mm 4 mps 748 mmHg 16%
    17:00 +41°C° 0 mm 2 mps 749 mmHg 18%
    18:00 +40°C° 0 mm 1 mps 749 mmHg 20%
    19:00 +36°C° 0 mm 0 mps 749 mmHg 23%
    20:00 +36°C° 0 mm 0 mps 750 mmHg 23%
    21:00 +37°C° 0 mm 1 mps 750 mmHg 23%
    22:00 +37°C° 0 mm 1 mps 750 mmHg 24%
    23:00 +37°C° 0 mm 1 mps 750 mmHg 22%

    25 May, Saturday

    Time Temperature Precipitation Wind Pressure Humidity
    00:00 +37°C° 0 mm 1 mps 749 mmHg 20%
    01:00 +37°C° 0 mm 1 mps 749 mmHg 19%
    02:00 +37°C° 0 mm 2 mps 749 mmHg 21%
    03:00 +36°C° 0 mm 2 mps 749 mmHg 23%
    04:00 +35°C° 0 mm 2 mps 748 mmHg 25%
    05:00 +35°C° 0 mm 1 mps 749 mmHg 24%
    06:00 +36°C° 0 mm 1 mps 749 mmHg 24%
    07:00 +37°C° 0 mm 1 mps 750 mmHg 24%
    08:00 +39°C° 0 mm 1 mps 750 mmHg 22%
    09:00 +40°C° 0 mm 2 mps 750 mmHg 20%
    10:00 +41°C° 0 mm 2 mps 750 mmHg 19%
    11:00 +43°C° 0 mm 3 mps 750 mmHg 17%
    12:00 +44°C° 0 mm 3 mps 749 mmHg 16%
    13:00 +44°C° 0 mm 4 mps 749 mmHg 15%
    14:00 +44°C° 0 mm 4 mps 749 mmHg 15%
    15:00 +44°C° 0 mm 4 mps 748 mmHg 15%
    16:00 +43°C° 0 mm 4 mps 748 mmHg 16%
    17:00 +42°C° 0 mm 4 mps 748 mmHg 18%
    18:00 +41°C° 0 mm 4 mps 748 mmHg 21%
    19:00 +39°C° 0 mm 3 mps 748 mmHg 24%
    20:00 +38°C° 0 mm 3 mps 748 mmHg 26%
    21:00 +38°C° 0 mm 3 mps 749 mmHg 27%
    22:00 +38°C° 0 mm 3 mps 749 mmHg 29%
    23:00 +38°C° 0 mm 3 mps 748 mmHg 30%
    Show more